[[{"header":{"parameterUnit":"m.s-1","parameterCategory":1,"la1":30.2991,"la2":30.254,"lo1":-89.0895,"lo2":-89.0444,"dy":0.0017,"dx":0.0017,"nx":28,"ny":28,"refTime":"2023-11-02T03:00:00:Z","depth":0,"parameterNumber":2,"parameterNumberName":"U-component_of_WINDS"},"data":[0,0,0,0,0,0,0,0,0,0,0,0,0,0,0,0,0,0,0,0,0,0,0,0,0,0,0,0,0,0,0,0,0,0,0,0,0,0,0,0,0,0,0,0,0,0,0,0,0,0,0,0,0,0,0,0,0,0,-3.1765,-3.1765,0,-3.1838,-3.1839,-3.184,-3.1766,-3.1763,-3.1761,-3.1758,-3.1833,-3.1837,-3.1842,0,0,0,0,0,0,0,0,0,0,0,0,0,-3.1561,-3.1565,-3.1764,-3.1765,-3.1766,-3.1838,-3.1839,-3.184,-3.1767,-3.1763,-3.176,-3.1757,-3.1831,-3.1837,-3.1843,0,0,0,0,0,0,0,0,0,0,0,0,0,-3.1643,-3.1566,-3.1764,-3.1739,-3.1737,-3.1838,-3.1839,-3.184,-3.1768,-3.1763,-3.1759,-3.1755,-3.183,-3.1836,-3.1843,-3.1973,0,0,-3.1865,-3.1868,0,0,0,0,0,0,0,0,-3.1639,-3.1651,-3.1741,-3.174,-3.1739,-3.1789,-3.1794,-3.1885,-3.1769,-3.1756,-3.1758,-3.1753,-3.1822,-3.1829,-3.1852,-3.1976,-3.198,-3.1865,-3.187,-3.1873,-3.1875,0,0,0,0,0,0,0,-3.1633,-3.1647,-3.1793,-3.1743,-3.1741,-3.1723,-3.173,-3.1811,-3.1812,-3.1757,-3.1752,-3.1761,-3.182,-3.1846,-3.1853,-3.1981,-3.1865,-3.1871,-3.1876,-3.1878,-3.2214,-3.2219,0,0,0,0,0,0,-3.163,-3.1643,-3.1791,-3.1796,-3.1677,-3.173,-3.1738,-3.1777,-3.1811,-3.1812,-3.1765,-3.1758,-3.1836,-3.1845,-3.1856,-3.2009,-3.1873,-3.1879,-3.1883,-3.221,-3.2215,-3.2221,0,0,0,0,0,0,-3.1626,-3.1644,-3.1788,-3.1718,-3.1735,-3.1738,-3.1783,-3.1781,-3.1806,-3.1817,-3.1817,-3.1791,-3.1833,-3.1846,-3.1944,-3.2011,-3.1882,-3.1889,-3.2204,-3.2212,-3.2218,-3.2318,0,0,0,0,0,0,-3.162,-3.1643,-3.1692,-3.172,-3.1739,-3.1876,-3.1787,-3.1785,-3.1818,-3.181,-3.1842,-3.1843,-3.183,-3.1934,-3.1951,-3.2018,-3.1894,-3.2198,-3.2207,-3.2216,-3.2309,-3.2328,-3.2344,0,0,0,0,0,-3.1613,-3.1718,-3.1695,-3.1714,-3.1801,-3.188,-3.1891,-3.1875,-3.1824,-3.1874,-3.1881,-3.1842,-3.2001,-3.1945,-3.1963,-3.2034,-3.2194,-3.2205,-3.2215,-3.2301,-3.2324,-3.2344,0,0,0,0,0,0,-3.1699,-3.1721,-3.1696,-3.1813,-3.1845,-3.1867,-3.193,-3.19,-3.1947,-3.1937,-3.1915,-3.1922,-3.2027,-3.204,-3.1977,-3.2161,-3.2089,-3.2104,-3.2148,-3.217,-3.2187,-3.2182,-3.19,0,0,0,0,0,-3.1731,-3.1794,-3.1809,-3.1911,-3.1928,-3.1926,-3.196,-3.1945,-3.1977,-3.1991,-3.2005,-3.2038,-3.2095,-3.2133,-3.2187,-3.2311,-3.2316,-3.2368,-3.2386,-3.24,-3.2413,-3.2479,-3.2502,-3.2255,-3.2255,-3.2255,0,0,-3.1799,-3.1818,-3.1859,-3.1928,-3.1951,-3.2016,-3.1938,-3.201,-3.2058,-3.2001,-3.2095,-3.2107,-3.2142,-3.2254,-3.2303,-3.2268,-3.2482,-3.2413,-3.2425,-3.243,-3.2492,-3.2516,-3.2536,-3.2263,-3.2261,-3.226,0,0,-3.1955,-3.1976,-3.2063,-3.2087,-3.2123,-3.2121,-3.2142,-3.2169,-3.2175,-3.2268,-3.2227,-3.2283,-3.2383,-3.241,-3.2436,-3.2602,-3.2568,-3.262,-3.2712,-3.2776,-3.2796,-3.2813,-3.2872,-3.2893,-3.2633,-3.2633,-3.2634,0,-3.2034,-3.213,-3.2111,-3.2186,-3.2217,-3.2169,-3.2256,-3.2281,-3.2333,-3.2355,-3.2315,-3.2438,-3.2459,-3.2576,-3.2616,-3.2639,-3.2662,-3.2616,-3.2795,-3.2812,-3.2827,-3.2883,-3.2905,-3.2639,-3.2639,-3.2638,-3.2638,0,-3.2226,-3.2293,-3.2359,-3.241,-3.2449,-3.253,-3.2522,-3.2563,-3.2545,-3.2547,-3.2643,-3.2665,-3.2722,-3.2749,-3.2731,-3.2864,-3.284,-3.2798,-3.2725,-3.2857,-3.2909,-3.2931,-3.2648,-3.2646,-3.2644,-3.2643,0,0,-3.2439,-3.2477,-3.2502,-3.2524,-3.256,-3.2611,-3.269,-3.2745,-3.2781,-3.2819,-3.2884,-3.2969,-3.2929,-3.296,-3.2945,-3.3002,-3.3131,-3.2952,-3.2952,-3.2984,-3.3278,-3.3309,-3.3335,-3.3108,-3.3112,-3.3116,-3.3275,0,-3.2596,-3.2732,-3.2716,-3.2846,-3.2907,-3.2862,-3.293,-3.2959,-3.2964,-3.3016,-3.3021,-3.3081,-3.3025,-3.3043,-3.3097,-3.3104,-3.319,-3.3092,-3.3169,-3.3172,-3.3161,-3.3362,-3.3396,-3.3545,-3.3295,-3.3298,-3.3301,0,-3.2797,-3.2841,-3.2977,-3.3003,-3.3028,-3.309,-3.3139,-3.319,-3.3223,-3.3221,-3.3255,-3.323,-3.3309,-3.3235,-3.3342,-3.3276,-3.3307,-3.3315,-3.332,-3.3327,-3.3244,-3.3374,-3.3592,-3.3614,-3.3333,-3.333,-3.3328,0,-3.2938,-3.3032,-3.3125,-3.3145,-3.3178,-3.3222,-3.3238,-3.3266,-3.33,-3.3343,-3.3365,-3.3417,-3.3446,-3.3486,-3.3476,-3.3423,-3.3586,-3.3511,-3.3587,-3.3588,-3.3624,-3.3621,-3.385,-3.3643,-3.3643,-3.3643,-3.3642,0,-3.3115,-3.32,-3.3189,-3.3246,-3.334,-3.3321,-3.3414,-3.3424,-3.3449,-3.3507,-3.3471,-3.3527,-3.3509,-3.3564,-3.3556,-3.3647,-3.366,-3.3661,-3.3658,-3.3664,-3.3664,-3.3684,-3.3673,-3.3649,-3.3647,-3.3646,-3.3645,0,-3.3289,-3.3285,-3.3383,-3.3406,-3.3413,-3.3481,-3.35,-3.3554,-3.3555,-3.363,-3.3646,-3.3648,-3.371,-3.3704,-3.3774,-3.3768,-3.388,-3.3865,-3.387,-3.3866,-3.3942,-3.3935,-3.4191,-3.4224,-3.3997,-3.3999,-3.4,0,-3.3402,-3.3467,-3.3496,-3.3532,-3.3551,-3.361,-3.3645,-3.3628,-3.3666,-3.3707,-3.3756,-3.3815,-3.3861,-3.3963,-3.3971,-3.4024,-3.401,-3.4095,-3.4017,-3.4022,-3.4011,-3.4007,-3.4013,-3.4111,-3.4114,-3.4116,-3.4117,0,-3.3604,-3.3598,-3.365,-3.3701,-3.3743,-3.3782,-3.3817,-3.3849,-3.3836,-3.388,-3.3943,-3.3979,-3.4051,-3.411,-3.416,-3.4176,-3.4145,-3.4142,-3.4162,-3.417,-3.417,-3.417,-3.3912,-3.4136,-3.4134,-3.4133,-3.4132,-3.4131,-3.3751,-3.3806,-3.3835,-3.3893,-3.3918,-3.3951,-3.4003,-3.401,-3.4062,-3.4119,-3.4106,-3.4177,-3.4207,-3.4272,-3.4293,-3.4348,-3.4317,-3.4347,-3.4354,-3.4362,-3.4371,-3.4161,-3.4357,-3.4357,-3.4356,-3.4356,-3.4355,0,-3.3951,-3.3967,-3.402,-3.4071,-3.4117,-3.4083,-3.412,-3.4161,-3.4224,-3.4254,-3.43,-3.4373,-3.443,-3.4442,-3.4496,-3.4538,-3.4526,-3.4553,-3.455,-3.4554,-3.4395,-3.4372,-3.4563,-3.4563,-3.4563,-3.4563,-3.4563,-3.4562,-3.406,-3.4151,-3.4148,-3.4251,-3.4266,-3.4336,-3.436,-3.4391,-3.4415,-3.4497,-3.4544,-3.4551,-3.4574,-3.463,-3.4681,-3.4683,-3.4704,-3.4738,-3.4735,-3.4586,-3.4565,-3.4546,-3.4524,-3.4743,-3.4743,-3.4888,-3.489,-3.4891]},{"header":{"parameterUnit":"m.s-1","parameterCategory":1,"la1":30.2991,"la2":30.254,"lo1":-89.0895,"lo2":-89.0444,"dy":0.0017,"dx":0.0017,"nx":28,"ny":28,"refTime":"2023-11-02T03:00:00:Z","depth":0,"parameterNumber":3,"parameterNumberName":"V-component_of_WINDS"},"data":[0,0,0,0,0,0,0,0,0,0,0,0,0,0,0,0,0,0,0,0,0,0,0,0,0,0,0,0,0,0,0,0,0,0,0,0,0,0,0,0,0,0,0,0,0,0,0,0,0,0,0,0,0,0,0,0,0,0,-2.3986,-2.3987,0,-2.4082,-2.4083,-2.4084,-2.4098,-2.4097,-2.4096,-2.4095,-2.419,-2.4193,-2.4197,0,0,0,0,0,0,0,0,0,0,0,0,0,-2.381,-2.3814,-2.3986,-2.3987,-2.3988,-2.4082,-2.4083,-2.4084,-2.4098,-2.4097,-2.4096,-2.4095,-2.4189,-2.4193,-2.4197,0,0,0,0,0,0,0,0,0,0,0,0,0,-2.3894,-2.3815,-2.3986,-2.4006,-2.4009,-2.4081,-2.4083,-2.4085,-2.4098,-2.4097,-2.4095,-2.4094,-2.4188,-2.4193,-2.4198,-2.4255,0,0,-2.4213,-2.4215,0,0,0,0,0,0,0,0,-2.389,-2.3901,-2.4002,-2.4005,-2.4008,-2.4077,-2.4056,-2.4142,-2.4098,-2.4064,-2.4095,-2.4094,-2.4153,-2.4161,-2.4182,-2.4259,-2.4263,-2.4213,-2.4216,-2.4219,-2.422,0,0,0,0,0,0,0,-2.3884,-2.3897,-2.4024,-2.4004,-2.4007,-2.401,-2.402,-2.4072,-2.4115,-2.4067,-2.4068,-2.408,-2.4155,-2.4177,-2.4184,-2.4265,-2.4213,-2.4218,-2.4221,-2.4223,-2.4393,-2.4394,0,0,0,0,0,0,-2.3875,-2.3892,-2.4021,-2.4027,-2.3945,-2.4014,-2.4026,-2.4056,-2.4114,-2.4122,-2.4081,-2.408,-2.4169,-2.4178,-2.4187,-2.4258,-2.4218,-2.4223,-2.4226,-2.4391,-2.4393,-2.4395,0,0,0,0,0,0,-2.3871,-2.3886,-2.4017,-2.396,-2.3977,-2.4018,-2.4052,-2.4059,-2.4081,-2.4125,-2.4132,-2.4096,-2.4168,-2.418,-2.4238,-2.4261,-2.4225,-2.423,-2.4389,-2.4392,-2.4394,-2.4399,0,0,0,0,0,0,-2.3866,-2.3885,-2.3908,-2.396,-2.398,-2.4067,-2.4054,-2.4061,-2.409,-2.409,-2.4141,-2.4148,-2.4168,-2.423,-2.4243,-2.4267,-2.4234,-2.4387,-2.439,-2.4393,-2.4396,-2.4401,-2.4404,0,0,0,0,0,-2.386,-2.3905,-2.3909,-2.3925,-2.401,-2.4068,-2.4079,-2.4102,-2.4092,-2.4115,-2.4142,-2.4146,-2.4257,-2.4236,-2.425,-2.4277,-2.4386,-2.439,-2.4393,-2.4395,-2.44,-2.4404,0,0,0,0,0,0,-2.3854,-2.3912,-2.3917,-2.3981,-2.402,-2.407,-2.41,-2.4107,-2.4149,-2.4147,-2.4173,-2.4184,-2.424,-2.4264,-2.424,-2.4334,-2.432,-2.4327,-2.4317,-2.4322,-2.4326,-2.4318,-2.4238,0,0,0,0,0,-2.386,-2.3904,-2.3952,-2.4004,-2.4023,-2.4058,-2.4085,-2.4099,-2.414,-2.4156,-2.4188,-2.4226,-2.4269,-2.4297,-2.4339,-2.44,-2.4411,-2.4425,-2.4429,-2.4432,-2.4437,-2.4469,-2.4476,-2.4406,-2.4406,-2.4406,0,0,-2.3873,-2.391,-2.3937,-2.4004,-2.4035,-2.4079,-2.4072,-2.4118,-2.4151,-2.4162,-2.4219,-2.4244,-2.4288,-2.4347,-2.4375,-2.4369,-2.4459,-2.4436,-2.4438,-2.4442,-2.4474,-2.448,-2.4486,-2.4408,-2.4408,-2.4407,0,0,-2.3919,-2.3952,-2.3999,-2.403,-2.4078,-2.4101,-2.4112,-2.4162,-2.4179,-2.4236,-2.4246,-2.4284,-2.4358,-2.4389,-2.4414,-2.447,-2.4475,-2.4483,-2.4503,-2.4535,-2.454,-2.4545,-2.4565,-2.4571,-2.4488,-2.4488,-2.4488,0,-2.3929,-2.3996,-2.4021,-2.4068,-2.4096,-2.411,-2.4156,-2.4185,-2.4244,-2.4262,-2.4255,-2.4348,-2.4379,-2.4444,-2.4458,-2.4479,-2.4491,-2.4477,-2.4538,-2.4543,-2.4548,-2.4567,-2.4574,-2.4489,-2.4489,-2.4489,-2.4489,0,-2.4006,-2.4052,-2.4083,-2.4141,-2.4173,-2.4218,-2.4249,-2.4278,-2.429,-2.4313,-2.437,-2.4407,-2.4457,-2.4474,-2.4485,-2.4541,-2.4536,-2.4533,-2.4519,-2.4555,-2.4573,-2.458,-2.449,-2.449,-2.4489,-2.4489,0,0,-2.4051,-2.4121,-2.4132,-2.4158,-2.4211,-2.4247,-2.4292,-2.4342,-2.4366,-2.4405,-2.4444,-2.4506,-2.4503,-2.4532,-2.4547,-2.4574,-2.4615,-2.4568,-2.457,-2.4575,-2.4678,-2.4679,-2.4687,-2.4619,-2.462,-2.4622,-2.4674,0,-2.4103,-2.4186,-2.4209,-2.4279,-2.4321,-2.4334,-2.4374,-2.441,-2.4433,-2.4471,-2.4495,-2.4538,-2.4532,-2.455,-2.4578,-2.4605,-2.4636,-2.4601,-2.4653,-2.4655,-2.4641,-2.4697,-2.4698,-2.4746,-2.4681,-2.4682,-2.4683,0,-2.4174,-2.4216,-2.429,-2.4337,-2.4356,-2.4391,-2.4438,-2.4474,-2.4515,-2.4529,-2.4561,-2.4573,-2.462,-2.4604,-2.4668,-2.4643,-2.4666,-2.4682,-2.4684,-2.469,-2.4671,-2.4702,-2.4762,-2.4768,-2.4694,-2.4694,-2.4693,0,-2.4199,-2.4273,-2.4327,-2.4349,-2.4405,-2.443,-2.4454,-2.4494,-2.4521,-2.4561,-2.4579,-2.4624,-2.4648,-2.4682,-2.4705,-2.4692,-2.4767,-2.4753,-2.4779,-2.4778,-2.4794,-2.4792,-2.4856,-2.4809,-2.4809,-2.4809,-2.4809,0,-2.4254,-2.4298,-2.4339,-2.4372,-2.4422,-2.4447,-2.4495,-2.452,-2.4555,-2.4592,-2.4606,-2.464,-2.4669,-2.4706,-2.4725,-2.4774,-2.4785,-2.4797,-2.4801,-2.4796,-2.4794,-2.481,-2.4807,-2.4811,-2.4811,-2.481,-2.481,0,-2.4289,-2.4319,-2.4378,-2.4426,-2.444,-2.4474,-2.4515,-2.4547,-2.457,-2.4616,-2.4628,-2.4664,-2.4709,-2.4736,-2.4792,-2.4805,-2.4859,-2.4862,-2.4845,-2.4847,-2.4871,-2.4868,-2.4948,-2.4959,-2.4905,-2.4905,-2.4906,0,-2.4322,-2.4357,-2.4409,-2.4435,-2.446,-2.4502,-2.4531,-2.4557,-2.4585,-2.4634,-2.4659,-2.4705,-2.4743,-2.4814,-2.4844,-2.4887,-2.4891,-2.4916,-2.4898,-2.489,-2.489,-2.4888,-2.4891,-2.4919,-2.4919,-2.492,-2.492,0,-2.4377,-2.439,-2.4431,-2.4476,-2.451,-2.4547,-2.4584,-2.4604,-2.4636,-2.4667,-2.4714,-2.4743,-2.4801,-2.4846,-2.4892,-2.4915,-2.4923,-2.4926,-2.4934,-2.4928,-2.4916,-2.4922,-2.4853,-2.4924,-2.4923,-2.4923,-2.4923,-2.4923,-2.4412,-2.4443,-2.4484,-2.4529,-2.456,-2.4593,-2.4625,-2.4652,-2.4692,-2.4742,-2.4754,-2.4802,-2.4841,-2.4903,-2.4928,-2.4965,-2.4961,-2.4973,-2.4976,-2.4978,-2.4978,-2.4911,-2.4973,-2.4973,-2.4973,-2.4973,-2.4973,0,-2.4467,-2.4494,-2.4535,-2.4586,-2.4621,-2.4626,-2.4666,-2.4695,-2.4737,-2.4773,-2.481,-2.4863,-2.4906,-2.494,-2.4984,-2.5007,-2.5012,-2.5018,-2.5016,-2.5021,-2.498,-2.4968,-2.5014,-2.5014,-2.5014,-2.5014,-2.5014,-2.5014,-2.4499,-2.4552,-2.4569,-2.4636,-2.4662,-2.4711,-2.4733,-2.4764,-2.4793,-2.4851,-2.4887,-2.4909,-2.4944,-2.499,-2.503,-2.5038,-2.5053,-2.5059,-2.5068,-2.5029,-2.5024,-2.502,-2.5009,-2.5062,-2.5062,-2.5106,-2.5107,-2.5107]}]]